Theta_e
338 335 333 329 324 319 318 318 317 314 312 310 308 307 307 305 305 304 304 304 303 303 303 303 302 302 302 302 302 301 299 297 297 296 295 294 293 293 293 292 292 294 293
335 332 327 323 320 318 317 316 315 313 310 308 307 306 305 304 303 303 303 303 302 302 302 301 301 301 300 300 299 296 294 293 293 292 291 291 291 290 290 290 290 290 291
326 323 322 319 317 315 313 313 311 309 307 307 306 305 304 303 303 303 302 301 301 300 300 300 299 299 297 296 294 293 292 291 291 290 290 289 289 289 289 289 289 290 290
321 319 317 315 314 312 310 307 307 307 306 305 304 303 303 303 303 301 301 300 299 298 297 297 296 295 294 293 292 291 290 290 289 289 288 288 288 288 288 289 289 290 290
317 315 314 312 311 310 309 308 307 306 305 304 303 303 303 302 301 300 299 296 296 296 296 295 293 291 293 292 291 290 289 288 288 288 288 288 288 288 288 289 289 289 289
314 313 311 310 309 309 308 307 307 304 302 303 303 303 301 301 300 299 297 296 294 295 293 293 293 292 292 290 290 289 288 288 287 288 288 288 288 288 288 288 289 289 290
312 310 309 309 308 307 305 304 303 303 303 303 302 301 300 300 298 298 297 293 294 294 294 293 292 292 290 289 289 288 288 288 288 288 288 288 288 288 288 288 289 289 289
310 309 308 307 306 305 304 302 302 302 302 302 301 301 300 298 298 297 292 293 294 294 293 291 290 290 289 289 289 288 288 288 288 288 288 288 288 288 288 288 288 288 288
308 308 307 305 304 303 302 302 302 301 301 301 301 300 298 298 294 291 291 293 293 291 289 288 289 288 289 288 288 288 288 288 288 288 288 288 288 288 288 288 288 288 288
308 307 305 304 303 302 301 301 301 301 301 300 300 298 298 296 293 290 290 290 289 288 287 288 287 287 287 288 288 288 288 288 288 288 288 288 288 287 287 288 288 287 286
307 305 303 302 302 301 301 301 301 301 300 299 298 297 297 295 293 288 288 288 287 286 287 287 287 286 288 288 288 288 288 287 288 288 288 288 287 287 287 287 288 286 286
304 302 301 301 300 300 300 300 300 300 298 298 297 295 295 294 291 290 289 288 287 286 286 286 284 285 288 288 288 287 287 287 288 288 288 287 287 287 287 288 287 286 287
301 300 300 300 300 300 299 299 298 298 297 296 296 294 293 293 292 291 289 287 286 285 285 284 286 286 286 287 287 287 287 287 287 288 288 287 287 287 287 287 287 287 287
299 299 299 299 299 299 299 298 297 296 296 295 294 294 294 293 292 291 289 285 284 284 285 286 286 286 286 286 286 286 287 287 287 287 287 287 287 287 287 287 286 287 286
298 298 298 298 298 297 297 296 296 296 295 294 294 294 293 293 292 291 287 285 284 285 286 286 286 286 286 286 286 286 286 286 286 287 287 287 287 287 287 287 287 287 287
297 297 297 297 296 295 294 296 296 295 295 295 294 294 293 291 291 288 285 285 284 285 286 287 287 286 285 285 285 285 285 286 286 287 287 286 287 286 286 287 288 287 287
296 295 294 294 294 292 292 292 291 294 294 293 293 292 289 288 286 285 285 285 284 286 287 287 288 286 285 285 285 285 285 285 286 287 287 287 286 286 286 287 287 287 287
294 294 293 292 292 292 292 292 291 290 290 290 290 288 286 286 285 285 285 285 285 288 288 287 287 286 285 284 284 284 285 285 286 286 286 286 286 286 286 286 287 286 286
293 292 292 292 292 292 291 291 291 289 288 286 285 285 285 285 285 285 285 285 285 286 287 286 286 285 285 284 284 284 284 285 285 285 286 286 286 286 286 286 286 286 285
293 293 292 291 291 291 291 289 288 286 286 286 286 286 287 286 286 286 286 285 285 285 285 286 286 285 284 284 283 284 284 284 284 285 285 286 285 286 286 286 286 286 285
292 291 291 291 290 290 290 290 289 289 290 291 290 290 289 289 288 287 287 287 286 286 285 286 285 285 284 284 283 283 283 283 283 285 285 285 285 286 285 286 286 285 284
291 291 290 290 290 290 290 290 289 289 289 289 289 290 290 290 289 289 289 288 288 287 286 286 285 284 283 283 282 282 281 282 282 283 284 285 285 285 285 285 285 284 284
291 291 290 289 288 288 289 290 290 290 290 290 291 291 291 291 290 290 289 288 287 287 286 285 285 284 283 282 282 281 281 281 280 281 282 284 284 284 285 285 285 285 285
291 292 291 291 291 291 291 291 291 291 291 291 290 290 290 290 289 288 287 287 287 287 286 286 285 284 283 282 281 281 280 279 279 280 280 281 283 284 285 285 285 285 285
290 290 290 290 290 290 290 290 290 289 289 289 288 288 287 286 286 285 286 286 285 285 285 285 284 283 283 281 281 280 279 279 279 278 278 280 282 283 284 285 285 285 285
290 290 290 289 289 289 288 288 287 287 286 286 285 284 284 284 284 284 284 285 285 285 285 284 283 283 282 281 281 280 279 278 278 278 277 278 281 282 283 284 285 285 285
Wind_Speed
39 38 40 41 42 43 44 44 43 42 42 36 31 26 23 18 14 11 9 7 8 4 2 4 6 8 9 10 11 13 16 20 13 23 24 28 33 31 30 31 31 28 30
42 43 40 39 44 42 43 47 45 44 41 35 29 25 22 19 15 13 12 8 6 5 4 4 6 6 7 9 13 18 18 17 19 23 28 28 26 29 30 32 30 29 30
36 36 37 39 36 40 46 48 46 42 35 31 29 26 22 20 18 14 12 10 7 5 2 4 6 8 10 14 16 14 16 17 17 20 27 26 28 29 30 31 30 29 28
33 32 32 33 34 39 40 45 42 38 36 30 27 24 23 20 18 17 15 10 7 4 1 3 5 7 10 10 11 16 15 17 19 20 23 24 26 26 26 28 33 28 30
33 30 30 34 36 41 38 41 38 35 32 30 29 25 22 22 20 17 11 8 6 4 1 3 4 6 6 6 12 14 16 19 19 20 22 22 23 21 24 28 28 33 32
33 31 32 35 36 37 38 40 37 35 32 31 28 27 26 22 18 13 7 6 6 4 3 5 6 8 6 9 11 13 15 22 22 20 21 20 23 25 26 27 28 25 13
33 33 35 36 36 36 34 33 33 33 33 31 28 28 23 20 16 11 7 7 8 4 4 4 5 5 9 12 13 14 21 22 19 21 23 23 27 30 31 29 26 26 26
34 34 35 35 34 35 36 33 30 31 31 30 30 27 23 19 13 9 12 11 8 5 0 3 6 8 10 11 15 21 20 21 20 20 22 26 27 30 30 31 32 31 28
33 35 37 39 38 37 34 32 30 30 29 28 28 25 24 17 12 14 14 11 7 4 2 4 4 8 10 14 17 17 21 22 22 23 23 24 24 25 26 28 23 22 20
38 35 36 38 39 36 36 34 31 31 29 29 26 22 16 18 13 12 13 11 8 3 4 5 6 7 11 10 16 18 20 24 26 26 23 23 23 27 24 23 25 20 17
36 37 36 37 38 37 36 33 32 30 28 26 22 18 19 18 15 13 12 9 6 5 6 5 8 10 10 12 14 16 20 23 23 23 23 23 24 26 27 24 22 19 19
42 40 37 37 36 38 37 34 30 30 27 24 24 21 20 18 14 12 10 7 5 4 4 5 10 11 12 12 13 15 18 20 21 21 20 20 22 26 28 26 23 18 17
42 39 38 38 36 38 36 31 28 28 26 25 25 23 24 18 14 11 8 5 3 2 4 8 10 9 10 13 13 15 17 21 22 18 17 19 24 25 25 24 22 17 14
42 39 38 38 36 36 33 31 27 27 24 24 24 23 23 18 17 14 10 5 1 2 5 7 9 8 9 10 13 15 17 19 21 18 19 23 24 25 24 25 18 17 12
40 38 36 36 37 33 30 29 29 23 29 28 28 29 27 22 20 14 9 6 1 2 4 6 8 9 11 12 15 17 18 19 21 21 20 20 21 23 23 23 16 12 11
35 33 33 32 32 29 27 24 20 24 27 29 28 28 24 19 18 14 9 5 2 1 2 3 5 7 9 10 13 16 18 20 20 21 20 20 18 22 22 21 13 9 10
34 32 30 28 28 27 24 24 23 22 21 21 23 21 18 18 15 12 8 5 3 3 1 2 3 6 7 10 12 14 17 18 19 20 20 20 19 21 19 18 13 8 7
33 30 27 26 28 28 26 24 25 25 24 24 21 19 17 15 13 11 9 6 4 4 2 2 4 5 6 8 11 12 15 18 19 18 18 19 18 18 17 15 10 5 6
30 26 28 26 26 27 25 24 26 25 25 23 19 18 17 15 12 11 9 8 5 5 6 6 6 6 7 8 9 11 15 16 17 18 19 16 17 17 16 12 8 4 5
26 28 27 26 24 24 23 22 22 23 22 21 20 19 17 15 16 15 12 8 6 7 8 7 7 8 8 8 8 8 10 14 15 17 19 18 16 14 14 12 9 2 4
25 26 26 23 21 22 22 23 24 24 22 20 18 15 15 17 14 11 10 10 10 10 11 10 10 10 9 9 11 11 11 12 16 15 17 15 15 14 12 7 4 4 3
23 23 22 22 24 25 26 25 22 20 18 17 15 14 12 14 12 11 12 14 15 15 12 12 14 12 11 11 11 11 13 12 14 15 17 15 15 13 12 9 5 4 7
24 24 23 24 25 22 20 19 18 17 16 14 12 12 13 14 16 16 18 18 18 19 17 16 16 16 15 15 13 12 10 14 15 14 15 15 14 14 12 11 9 9 10
25 23 23 21 20 19 18 17 14 13 12 11 10 10 11 12 16 18 21 21 20 20 18 18 19 17 16 15 14 14 12 15 12 14 18 17 16 15 14 13 12 13 12
20 17 15 16 15 14 12 11 9 8 9 12 13 13 15 18 18 18 18 18 17 19 20 20 17 16 15 14 14 14 13 11 12 16 16 17 17 17 16 15 15 17 17
17 14 11 9 7 5 3 4 8 12 13 12 13 14 14 15 15 15 15 16 17 18 18 19 18 17 17 15 15 13 13 13 15 17 17 17 16 17 17 17 17 19 20
Wind_Direction
172 172 177 176 174 176 178 183 181 179 176 174 172 172 170 172 173 173 163 165 150 138 88 41 11 354 345 333 327 337 335 341 319 317 320 322 323 325 325 321 319 317 315
173 173 171 169 169 171 177 178 178 173 174 173 171 172 169 169 169 166 159 160 151 126 76 47 34 351 330 330 332 334 337 341 337 319 318 325 321 321 319 319 319 316 318
165 166 167 169 170 169 170 169 170 167 169 168 169 173 167 164 162 164 161 153 150 133 79 2 340 316 322 331 336 344 346 335 324 314 311 316 316 319 318 317 316 317 316
165 167 167 170 170 165 165 161 165 166 164 165 171 166 162 166 157 157 161 157 149 114 58 335 327 330 338 356 348 343 339 330 323 313 306 311 313 317 314 314 316 318 317
170 169 168 169 165 165 163 160 163 163 167 170 168 162 162 160 168 169 153 151 143 130 2 347 348 7 4 348 336 332 331 329 316 313 305 309 314 317 315 313 308 313 315
170 168 162 159 158 158 160 163 167 170 166 169 163 160 164 161 166 163 170 162 142 120 70 27 14 13 334 331 327 323 323 325 314 311 308 307 309 309 310 309 308 313 312
165 161 160 159 155 156 156 154 160 160 165 162 163 171 160 161 163 173 175 147 125 99 36 11 2 345 325 336 338 329 326 328 326 318 301 304 307 308 306 305 306 303 300
164 161 162 160 155 152 152 156 157 162 162 162 173 169 161 157 167 169 145 133 127 130 55 336 343 346 355 342 337 331 340 342 339 330 320 316 314 316 311 309 308 302 300
168 167 166 160 154 149 149 153 162 162 161 170 174 163 160 152 159 149 141 139 143 128 53 15 7 351 346 344 338 345 345 342 341 333 331 329 327 327 325 322 314 314 316
174 168 163 158 153 151 151 156 159 166 170 172 165 162 162 163 162 147 146 143 134 115 65 38 14 341 338 10 354 350 343 342 340 338 340 339 337 337 335 333 321 310 317
161 155 157 156 149 147 147 154 161 163 162 165 161 159 173 174 156 141 140 139 116 85 56 22 344 357 35 15 7 359 349 339 339 340 341 340 337 339 341 337 326 311 308
150 149 149 144 144 145 146 155 161 160 160 163 157 161 176 170 157 147 143 138 121 75 50 357 357 21 21 19 11 355 349 346 347 346 340 337 334 338 344 336 332 333 322
143 144 141 141 144 147 147 151 152 163 165 158 164 168 169 165 161 160 152 148 123 73 14 12 47 29 15 23 11 351 354 356 356 336 337 336 341 344 345 342 336 342 352
141 140 140 137 135 139 152 159 166 168 156 166 170 168 164 166 169 170 171 179 166 28 38 60 57 36 22 17 6 360 358 358 355 346 334 342 343 349 348 347 337 350 4
135 135 135 135 140 145 157 169 175 171 181 179 185 181 172 173 182 185 194 196 176 2 59 58 49 26 20 11 5 359 356 357 354 347 344 336 339 344 345 347 335 354 21
127 131 133 136 140 148 153 156 170 185 189 194 194 187 185 183 182 189 194 198 202 254 50 40 30 17 16 4 357 353 353 351 351 347 345 343 339 344 344 346 343 5 25
127 127 133 141 147 149 146 145 139 156 180 193 192 188 186 180 185 191 197 207 214 227 254 350 328 342 357 356 355 349 346 346 348 348 343 338 341 341 345 346 347 12 31
128 138 144 146 149 153 158 165 165 158 163 172 178 183 186 188 192 200 209 224 200 207 233 296 299 317 331 336 342 346 342 340 345 345 334 342 338 339 342 343 348 15 53
141 147 152 154 159 165 165 166 172 178 180 178 182 193 197 202 208 216 221 232 234 236 247 254 278 310 315 320 327 334 339 338 339 342 337 333 338 337 335 336 333 359 51
150 158 160 161 160 160 163 162 171 181 185 190 195 202 203 205 213 220 225 230 232 253 268 268 284 295 305 305 313 318 319 331 330 334 336 334 335 329 328 326 306 243 98
146 151 154 154 154 157 163 173 183 187 189 196 204 207 212 212 216 211 214 228 235 249 256 274 264 280 294 298 310 315 315 328 327 327 330 330 333 324 328 311 297 287 202
147 147 149 155 163 170 177 183 187 192 199 207 215 221 219 222 234 248 270 276 284 281 276 269 267 270 271 286 296 301 310 313 316 323 322 320 325 321 312 296 273 213 185
154 158 164 166 171 175 178 185 192 200 207 213 221 230 233 243 247 261 275 281 280 274 264 269 258 263 275 282 285 290 299 301 305 314 313 315 314 313 303 288 255 219 209
153 152 157 162 168 174 180 183 189 197 203 211 229 248 258 259 263 271 277 275 272 267 265 260 260 263 266 264 271 282 295 298 295 300 305 306 297 295 294 279 260 221 212
156 156 163 173 163 159 168 177 187 214 246 260 269 275 279 281 282 279 273 268 260 263 262 260 259 261 257 258 271 273 291 291 289 298 304 295 291 282 277 273 253 228 218
126 121 120 130 140 160 201 267 286 281 283 278 277 275 274 269 272 274 275 273 267 260 256 254 258 257 250 248 253 264 277 283 287 301 305 304 295 278 272 264 251 236 219